Atqasuk Edward Burnell Sr Mem, AK

7:12 PM AKDT on July 20, 2019 (GMT -0800)
Atqasuk Edward Burnell Sr Mem

Weather History for PATQ - May, 2019

Change the Weather History Date:

Monday, May 13, 2019

  Actual Average (WUND) Record (WUND)
Temperature  
Mean Temperature 30 °F -  
Max Temperature 35 °F - - (-1)
Min Temperature 25 °F - - (-1)
Degree Days  
Heating Degree Days 35    
Moisture  
Dew Point 28 °F    
Average Humidity 88    
Maximum Humidity 96    
Minimum Humidity 78    
Precipitation  
Precipitation 0.00 in - - ()
Sea Level Pressure  
Sea Level Pressure 30.05 in    
Wind  
Wind Speed 8 mph (ESE)    
Max Wind Speed 13 mph    
Max Gust Speed -    
Visibility 10 miles    
Events      
Averages and records for this station are not official NWS values.
T = Trace of Precipitation, MM = Missing Value Source: NWS Daily Summary

Daily Weather History Graph

Daily Weather History Graph

Search for Another Location

Airport or City:

Astronomy

May. 13, 2019 Rise Set
Actual Time 3:09 AM AKDT 2:03 AM AKDT
Civil Twilight Sun does not set Sun does not set
Nautical Twilight Sun does not set Sun does not set
Astronomical Twilight Sun does not set Sun does not set
Moon 2:46 PM AKDT (5/13) 6:11 AM AKDT (5/13)
Length of Visible Light 24h 00m
Length of Day
22h 53m
Waxing Gibbous, 70% of the Moon is Illuminated
May 13
Waxing Gibbous
May 18
Full
May 26
Last Quarter
Jun 3
New
Jun 9
First Quarter

Hourly Weather History & Observations

Time (AKDT) Temp. Windchill Dew Point Humidity Pressure Visibility Wind Dir Wind Speed Gust Speed Precip Events Conditions
12:56 AM 28.9 °F 23.9 °F 27.0 °F 92% 29.98 in 10.0 mi East 4.6 mph - N/A   Clear
1:56 AM 28.0 °F - 27.0 °F 96% 29.98 in 10.0 mi Calm Calm - N/A   Clear
2:56 AM 27.0 °F 18.0 °F 25.0 °F 92% 29.99 in 10.0 mi SSE 9.2 mph - N/A   Clear
3:56 AM 26.1 °F 16.2 °F 24.1 °F 92% 30.00 in 10.0 mi SSW 10.4 mph - N/A   Clear
4:56 AM 25.0 °F 13.6 °F 21.9 °F 88% 30.01 in 10.0 mi SSW 12.7 mph - N/A   Clear
5:56 AM 27.0 °F 16.7 °F 23.0 °F 85% 30.02 in 10.0 mi SSW 11.5 mph - N/A   Clear
6:56 AM 26.1 °F 15.6 °F 21.9 °F 84% 30.04 in 10.0 mi SSW 11.5 mph - N/A   Clear
7:56 AM 28.0 °F 20.0 °F 25.0 °F 88% 30.05 in 10.0 mi South 8.1 mph - N/A   Clear
8:56 AM 32.0 °F 25.6 °F 27.0 °F 82% 30.05 in 10.0 mi SSE 6.9 mph - N/A   Clear
9:56 AM 33.1 °F - 27.0 °F 78% 30.06 in 10.0 mi Calm Calm - N/A   Clear
10:56 AM 32.0 °F 28.7 °F 28.0 °F 85% 30.06 in 7.0 mi East 3.5 mph - N/A   Clear
11:56 AM 33.1 °F 28.7 °F 28.9 °F 85% 30.07 in 10.0 mi East 4.6 mph - N/A   Clear
12:56 PM 34.0 °F 28.0 °F 30.0 °F 85% 30.07 in 10.0 mi East 6.9 mph - N/A   Clear
1:56 PM 34.0 °F 25.0 °F 30.9 °F 89% 30.08 in 10.0 mi East 12.7 mph - N/A   Clear
2:56 PM 34.0 °F 26.0 °F 30.9 °F 89% 30.08 in 10.0 mi East 10.4 mph - N/A   Clear
3:56 PM 35.1 °F 27.9 °F 32.0 °F 89% 30.08 in 10.0 mi East 9.2 mph - N/A   Clear
4:56 PM 35.1 °F 26.4 °F 32.0 °F 89% 30.07 in 10.0 mi East 12.7 mph - N/A   Clear
5:56 PM 35.1 °F 26.4 °F 30.9 °F 85% 30.07 in 10.0 mi East 12.7 mph - N/A   Clear
6:56 PM 34.0 °F 26.6 °F 30.9 °F 89% 30.07 in 10.0 mi East 9.2 mph - N/A   Clear
7:56 PM 34.0 °F 25.0 °F 30.9 °F 89% 30.07 in 10.0 mi East 12.7 mph - N/A   Clear
8:56 PM 34.0 °F 26.6 °F 30.0 °F 85% 30.08 in 10.0 mi East 9.2 mph - N/A   Clear
9:56 PM 33.1 °F 24.4 °F 30.0 °F 89% 30.07 in 10.0 mi East 11.5 mph - N/A   Clear
10:56 PM 30.9 °F 21.7 °F 28.9 °F 92% 30.07 in 10.0 mi ENE 11.5 mph - N/A   Clear
11:56 PM 28.9 °F 18.6 °F 28.0 °F 96% 30.07 in 10.0 mi ENE 12.7 mph - N/A   Clear